OBJECT AC, 57192

Orbit data source: Space-Track

You're viewing an uncataloged RSO

Recently launched and/or uncataloged RSOs may have evolving metadata. Metadata may include the following, but is not limited to: Owner, Manufacturer, Bus, Motor, and Mission.

OBJECT AC, 57192 is a satellite in SSO that was launched on Tue, 27 Jun 2023 UTC via a SOYUZ-2-1B launch vehicle from the Vostochny Cosmodrome (VOSTO). Unknown objects in Earth's orbit typically refer to objects detected orbiting the Earth but have not yet been identified or cataloged. These objects could be anything from previously untracked satellites, spent rocket stages, debris from satellite collisions, or even natural meteoroids temporarily captured by Earth's gravity.

Loading next visibility...
Identifier
57192, 2023-091AC
Orbit
SSO
Country
Flag of TBDTBD
Related business
Manufacturer
Sputniks
Mission
Operational Commercial Communications
Bus & Motor
CUBESAT 3U?, Unknown motor
Mass
3 kg wet, 3 kg dry
Launch date (UTC)
2023-06-27 (3 years ago)
Launch vehicle
SOYUZ-2-1B
Launch site
Vostochny Cosmodrome (VOSTO)
Object type
Unknown
Shape & HBR
Box, 0.2 m
Radar Cross Section
0.035 m², Medium (>0.1 m² and < 1m²)

Expand to show TLE details & history
Last TLE update: 6 hours ago

TLE from 6 hours ago
0 OBJECT AC
1 57192U 23091AC  26257.12220698  .00008927  00000-0  33507-3 0  9998
2 57192  97.4976 320.5666 0012061 147.0718 213.1275 15.27380788177852
Epoch: 2026-09-14T02:55Z
TLE epoch observation values (Epoch: 2026-09-14T02:55:58.683Z)
Latitude
0.00005°
Longitude
-76.53496°
Altitude
493.679 km
Speed
7.614 km/s
True Right ascension
21h 22m 15s
True Declination
0° 00' 00"
Sunlit
Object was in full shadow at epoch
Visualization orbit readout
Latitude
Unknown
Longitude
Unknown
Altitude
Unknown
Speed
Unknown
Apparent Right ascension
Unknown
Apparent Declination
Unknown
Sunlit
N/A
Visualization observer readout
Local Sidereal Time
01:46:32
Azimuth
Unknown
Elevation
Unknown
Doppler factor
Unknown
Orbital elements
Apogee altitude
488.878 km
Perigee altitude
472.333 km
Semi-major axis
6,858.743 km
Eccentricity
0.00121
Inclination
97.4976°
RAAN
320.5666°
Arg. of periapsis
147.0718°
True anomaly
213.05206°
Mean anomaly
213.1275°
Eccentric anomaly
213.08977°
Mean motion
3.82099 °/min
Orbital period
94.22 mins
BSTAR
0.00033507
Loading maneuver chart data...
Computing Atmospheric mass density...
Loading historical data...
Loading historical data...
Loading historical data...
Loading historical data...
Loading historical data...
Loading historical data...
Loading historical data...

Documentation

Showing up to 5 results
|